Theta_e
324 324 325 326 327 332 335 337 339 337 342 344 351 355 355 352 352 352 349 347 347 343 340 337 334 332 329 327 326 324 323 323 323 323 322 321 320 320 319 318 317 317 318 319
324 323 323 325 329 331 334 335 336 340 343 344 349 350 351 353 352 353 351 347 344 342 339 336 333 330 327 325 323 323 323 322 322 322 321 319 318 317 316 315 315 315 315 315
326 330 331 331 331 334 336 336 337 343 342 347 351 351 350 352 353 352 349 346 343 341 338 333 330 328 326 323 322 322 321 321 321 320 319 316 316 316 314 313 313 313 312 312
333 337 331 328 337 335 337 340 338 341 345 348 348 348 347 348 351 351 348 343 341 338 334 330 327 325 323 322 321 321 321 320 319 318 317 317 316 314 313 312 311 311 311 311
341 337 337 339 339 340 340 338 340 343 347 347 346 347 348 347 347 348 345 340 338 335 331 327 325 323 321 321 320 320 320 319 318 316 316 317 315 314 314 312 312 311 311 310
341 341 338 337 339 338 339 340 342 344 348 348 346 350 349 348 349 348 341 337 335 331 328 325 323 321 321 320 320 320 320 320 319 317 315 314 315 315 315 315 313 312 312 311
337 340 339 339 336 339 343 340 344 344 347 347 349 349 347 348 346 341 338 335 331 329 327 323 321 320 320 320 320 320 320 321 320 318 317 316 316 315 316 316 316 316 316 314
338 341 336 336 338 343 345 343 346 345 346 347 346 347 346 345 340 337 333 330 329 327 324 321 320 319 320 320 320 320 318 319 319 319 317 316 316 317 316 316 316 316 316 315
338 337 338 339 343 341 340 349 349 347 346 345 345 345 342 340 335 332 330 329 327 324 322 321 318 318 319 320 320 319 318 317 317 315 316 314 316 317 316 316 315 314 313 313
343 341 339 338 338 337 342 349 348 345 344 343 343 342 339 335 332 331 328 326 325 323 322 320 318 319 319 320 319 317 317 318 317 317 315 314 315 315 315 314 313 312 311 311
344 343 340 341 339 339 346 348 348 342 340 339 340 339 336 333 330 328 326 324 324 323 322 320 319 318 319 319 318 319 318 316 316 315 314 313 312 312 312 313 311 310 311 311
344 340 341 341 339 341 347 347 344 343 338 337 337 334 331 329 326 325 324 323 323 322 320 318 317 317 317 317 316 316 315 314 313 313 312 313 312 313 311 310 310 309 308 307
342 339 338 339 339 341 345 343 341 339 336 335 332 331 329 327 324 322 321 321 321 319 317 316 315 315 315 313 312 312 315 313 313 312 312 312 313 313 313 312 313 313 311 310
337 338 342 339 341 339 339 336 333 332 330 329 329 327 324 323 319 321 320 319 318 317 316 314 313 314 314 312 311 312 313 311 315 315 315 315 315 315 313 313 315 315 314 313
338 338 337 335 335 334 330 330 329 328 326 326 324 323 322 321 320 319 317 317 317 316 314 314 315 316 313 311 313 314 315 316 317 317 316 316 316 316 314 315 316 316 315 314
335 334 333 334 333 332 330 330 328 325 324 324 323 322 320 320 318 317 316 316 316 315 314 315 317 317 315 316 318 318 319 317 317 318 316 318 317 316 317 317 317 317 316 316
337 337 334 333 331 330 330 328 326 324 323 324 321 319 318 317 316 316 316 316 316 315 315 316 317 315 315 315 317 318 318 318 317 317 316 317 317 317 317 317 318 317 316 316
338 337 337 332 329 327 325 324 323 322 323 320 319 318 318 317 318 317 316 315 315 316 316 316 316 316 316 317 318 318 318 318 317 317 316 316 316 316 316 316 316 317 316 316
336 335 335 332 329 325 323 324 323 321 319 319 319 319 318 318 317 316 314 314 316 317 317 316 316 316 318 317 316 319 319 318 317 317 316 315 315 315 315 316 317 315 313 312
333 330 329 328 324 323 323 321 320 321 320 320 319 318 318 317 316 315 314 316 317 317 317 318 317 318 318 317 316 318 318 318 317 317 316 315 315 315 317 315 312 312 311 310
332 331 329 328 327 324 322 321 321 320 319 319 319 319 318 316 316 315 316 317 318 317 317 317 319 319 318 317 317 317 316 317 317 317 316 315 316 317 314 312 311 309 308 309
332 332 331 329 328 325 322 322 321 319 319 319 319 318 317 316 316 316 317 319 319 316 317 319 319 317 318 316 317 317 317 318 317 316 316 316 316 313 312 310 308 307 308 307
333 331 329 327 328 324 321 322 321 320 319 319 319 318 317 316 316 317 318 318 317 316 317 319 318 316 316 316 319 319 318 318 317 317 315 314 313 310 308 308 307 307 306 303
331 330 328 324 323 323 324 321 321 320 320 320 319 318 317 317 317 318 318 316 316 316 317 319 316 316 316 318 319 319 319 318 316 314 313 310 309 307 307 307 306 305 303 302
328 326 323 322 323 324 322 321 320 320 319 319 319 318 318 318 318 318 318 318 317 318 319 316 316 316 316 319 318 319 318 315 314 313 311 308 306 305 305 306 305 302 302 301
327 327 326 324 324 322 320 320 320 319 319 319 318 318 318 318 318 319 319 318 318 316 318 318 317 317 318 318 317 315 314 311 312 311 308 306 305 304 304 304 302 301 301 300
324 323 323 322 321 320 320 320 320 319 319 319 318 319 319 319 320 320 319 319 318 318 320 320 318 317 315 314 312 312 312 311 311 308 306 304 304 303 303 302 301 300 300 299
Wind_Speed
14 13 11 13 9 9 12 11 9 8 11 10 17 19 16 15 13 13 13 12 13 13 13 15 15 14 15 14 13 13 13 11 9 7 7 8 10 12 12 13 14 12 10 10
7 10 10 10 9 10 13 9 11 7 11 4 16 16 16 16 16 15 16 15 14 13 15 14 14 15 14 12 10 9 8 7 7 8 10 11 12 12 14 13 13 13 14 14
6 6 8 8 14 12 8 9 8 10 7 13 19 19 20 19 17 17 17 17 15 14 15 14 14 14 12 10 9 8 8 8 8 9 10 12 12 12 12 12 12 14 15 16
2 9 8 4 1 10 12 5 12 7 6 13 15 15 16 16 17 17 16 16 15 16 17 16 15 13 12 10 10 9 8 9 9 9 10 9 10 10 10 11 13 15 18 18
4 7 2 3 6 9 11 13 14 8 12 14 16 15 13 15 14 17 16 17 18 19 19 18 15 12 11 10 9 8 9 10 8 6 5 6 7 8 9 11 13 13 13 15
4 5 8 6 9 7 3 9 14 14 18 22 20 10 10 17 15 16 20 21 22 21 19 16 13 11 11 10 8 6 6 5 5 5 7 7 8 7 8 7 7 8 9 11
6 4 3 4 7 9 7 6 19 19 21 22 13 3 14 19 16 20 22 23 23 22 19 15 13 11 10 9 8 6 5 5 4 4 5 5 5 5 5 5 6 7 7 7
3 5 7 9 9 10 8 1 17 18 21 18 12 17 22 20 19 19 23 24 23 21 18 15 13 12 12 10 8 6 7 6 4 4 4 3 3 3 5 6 7 8 9 9
6 5 2 15 4 6 6 7 16 20 20 18 20 21 21 19 20 20 26 25 23 22 20 16 14 13 13 11 8 8 7 6 3 1 1 3 4 5 6 7 9 9 9 10
2 6 12 10 14 10 7 10 15 16 22 19 22 22 20 19 18 17 25 24 23 22 19 17 13 11 11 10 8 8 6 3 1 1 3 3 4 5 6 8 9 9 10 11
6 12 8 13 12 8 5 14 16 14 17 21 24 21 22 19 18 22 24 23 22 20 18 17 14 12 11 9 7 5 3 1 1 1 2 2 3 3 4 5 6 8 9 9
4 2 5 3 5 8 11 14 22 26 17 16 21 24 21 18 23 25 25 23 19 17 17 16 14 13 11 9 8 5 3 3 1 0 1 2 3 5 8 10 12 11 10 10
4 1 8 9 3 7 11 14 17 15 22 22 17 23 25 19 24 25 24 22 19 18 16 15 13 11 9 9 6 5 5 4 3 2 4 5 5 5 8 13 16 14 9 10
10 6 5 2 2 7 12 15 17 20 19 21 25 24 26 24 25 22 20 19 18 17 15 13 12 10 9 8 6 6 6 5 3 4 5 6 6 5 6 8 11 11 11 11
6 9 4 9 12 14 16 18 20 18 18 17 23 25 27 25 22 21 20 18 17 16 14 13 11 10 10 9 6 5 3 2 4 6 6 5 3 4 5 7 10 12 13 12
6 9 12 12 13 15 15 17 18 17 17 18 19 23 24 24 23 22 20 18 19 16 15 12 11 10 10 8 6 4 3 5 7 8 7 5 5 5 8 12 14 14 15 14
12 15 16 16 15 12 10 12 17 19 18 17 23 25 24 23 22 20 17 15 14 14 14 13 12 10 9 7 6 5 7 8 9 9 8 7 8 10 13 15 16 17 17 18
13 9 8 20 19 12 10 7 14 20 19 27 27 26 24 23 20 19 17 15 13 12 13 13 12 10 8 7 7 8 9 9 8 9 9 9 11 13 14 14 16 16 15 15
10 5 10 14 15 17 11 11 19 21 25 26 26 22 21 20 20 19 17 14 13 12 10 11 9 7 6 5 5 6 8 9 10 10 11 12 13 13 13 12 10 10 15 17
15 14 20 19 23 27 15 17 22 24 22 24 23 21 19 19 19 18 16 15 13 9 9 8 8 7 6 4 4 6 9 11 13 13 12 12 12 11 9 5 9 12 15 16
19 17 16 20 16 20 24 23 23 21 20 21 23 20 20 19 19 18 14 11 10 10 7 7 6 5 6 6 7 9 10 11 11 11 9 7 5 4 6 8 11 13 15 13
16 16 16 19 18 21 20 21 21 22 20 19 18 19 19 18 16 14 11 9 7 7 6 6 6 7 7 8 9 11 11 10 8 5 2 2 2 4 6 9 12 12 10 10
13 15 18 18 18 23 23 20 20 23 22 20 19 18 18 17 17 15 9 10 8 8 7 6 7 8 8 11 11 10 10 6 3 2 4 3 3 5 7 9 9 8 8 10
20 20 22 22 23 23 15 18 20 19 19 18 18 18 17 14 10 9 6 6 9 9 8 8 8 9 11 10 9 7 4 0 4 5 4 3 4 6 7 8 7 7 8 9
19 25 30 20 15 13 20 20 18 17 17 15 15 16 14 12 11 12 9 8 9 10 8 7 8 11 11 8 7 2 1 4 4 4 4 4 6 7 8 6 5 6 6 8
19 16 23 22 21 22 20 21 17 18 18 16 15 14 12 11 8 7 7 8 7 6 5 7 8 9 6 2 3 2 3 4 4 4 4 5 7 7 7 5 5 5 7 8
19 23 21 18 18 20 21 21 20 18 18 18 17 14 13 10 7 6 5 4 4 3 6 7 7 1 6 4 4 2 3 4 5 4 3 5 7 7 5 4 4 5 6 8
Wind_Direction
232 231 215 236 231 197 210 234 222 232 218 241 182 167 163 154 149 143 143 144 143 142 140 138 129 116 101 86 68 55 54 58 65 68 61 50 43 36 31 28 31 26 27 24
240 220 220 239 243 213 227 229 252 255 250 150 158 148 155 160 160 155 154 154 152 146 146 140 128 117 107 102 95 94 99 100 99 80 62 50 51 57 54 54 54 52 46 39
231 192 177 240 235 216 214 219 203 213 227 148 163 164 165 166 166 164 161 157 157 154 148 144 133 120 111 108 113 106 95 89 77 76 75 73 70 59 54 51 54 50 45 40
146 153 221 226 251 221 213 257 199 246 151 170 171 158 163 169 166 168 165 162 156 152 145 141 131 126 124 124 112 109 106 94 83 76 73 75 66 65 62 55 53 49 43 40
193 207 337 207 193 184 190 234 193 181 142 149 140 135 161 179 183 174 166 159 154 149 150 146 137 128 121 114 113 108 86 73 71 74 91 93 83 74 58 51 47 43 40 38
169 200 204 209 187 167 148 250 183 177 161 158 157 162 179 178 172 162 157 151 149 150 147 136 133 139 131 129 130 131 128 123 114 103 96 94 77 56 40 31 28 30 32 32
196 247 255 230 150 148 186 226 176 178 166 164 172 87 140 154 154 154 150 147 147 146 143 142 145 137 142 157 160 142 137 127 120 112 96 69 50 35 11 354 357 357 355 359
164 206 249 159 138 189 209 294 175 169 164 164 118 124 138 145 145 146 143 144 148 144 143 145 151 156 153 157 145 136 124 136 137 114 78 44 20 354 343 339 335 339 344 348
216 212 336 197 305 220 166 166 172 165 163 150 134 141 144 145 145 146 147 148 149 147 147 156 160 160 155 149 151 151 150 147 126 77 345 323 325 324 339 340 346 352 348 348
262 222 236 247 253 277 224 159 173 165 155 150 136 145 143 146 146 146 147 150 151 152 154 152 155 152 146 151 153 155 158 162 245 295 321 317 303 313 331 345 353 0 1 3
263 276 264 254 246 236 212 150 142 141 154 144 141 149 149 146 145 145 148 150 153 157 152 147 148 155 156 157 157 159 150 196 248 308 342 1 5 336 329 330 338 334 338 335
251 351 304 291 325 198 172 165 152 137 152 149 150 145 144 141 145 149 150 149 151 149 147 147 153 155 160 165 169 164 179 190 211 312 345 339 337 337 337 342 331 322 311 312
277 290 267 288 303 207 171 157 150 140 144 142 141 141 138 140 150 149 146 142 147 147 146 150 153 156 161 168 176 172 182 213 229 269 285 294 308 321 327 333 341 344 325 299
252 252 240 159 195 150 140 127 118 118 126 124 137 138 133 137 141 141 138 140 143 142 149 147 148 157 169 174 174 180 193 220 261 291 298 305 309 303 305 317 324 332 334 330
266 211 303 125 123 121 124 125 120 123 126 130 139 136 140 140 142 136 135 136 143 145 149 146 148 161 167 173 183 193 183 257 289 306 311 317 313 306 301 302 307 312 316 320
147 138 127 122 125 127 129 127 123 128 133 136 135 137 137 138 135 132 133 145 149 159 155 155 159 164 166 184 199 228 269 286 295 293 304 292 301 310 312 311 308 304 303 306
162 161 139 123 113 113 125 137 137 138 138 136 135 133 133 132 130 133 145 156 157 160 161 165 169 170 184 202 221 251 269 278 282 280 290 308 299 297 303 303 308 313 307 309
201 276 243 142 129 116 113 151 136 136 137 136 134 137 141 143 144 148 153 150 153 162 171 169 166 173 198 221 240 256 263 272 277 274 284 294 299 301 303 307 312 317 317 324
209 224 166 109 113 115 141 163 131 136 133 138 140 143 142 144 147 151 151 152 160 166 176 183 192 207 223 236 257 256 261 274 280 284 290 294 304 306 309 315 325 333 333 333
143 153 129 123 131 139 146 132 134 134 141 139 133 137 146 147 149 148 155 166 169 163 168 181 201 218 224 241 264 268 272 279 285 293 298 305 308 312 321 343 343 341 339 339
143 145 141 130 138 151 124 133 134 135 143 145 146 150 150 153 156 155 159 172 188 188 201 204 215 230 244 260 276 275 281 289 294 300 304 314 332 355 352 350 346 345 342 346
148 146 144 140 123 109 129 135 140 144 147 145 145 148 151 154 157 163 173 177 172 186 196 218 226 237 250 271 275 283 290 294 294 299 326 57 43 12 355 351 348 350 356 359
133 132 132 124 126 131 137 145 150 151 151 153 151 154 158 163 165 167 181 204 197 198 214 226 230 248 270 284 281 290 296 295 299 125 110 88 46 17 0 352 351 353 353 355
133 127 111 113 123 132 132 151 154 158 156 155 158 159 153 151 164 180 176 176 195 200 220 237 255 275 283 291 298 304 304 234 139 126 108 84 42 15 3 354 352 349 353 356
130 128 121 128 134 146 145 150 148 147 148 156 162 164 163 165 169 191 206 218 222 221 229 243 267 290 300 297 309 308 135 137 137 124 100 51 20 7 357 356 358 355 359 352
137 146 131 152 149 150 151 152 145 150 153 149 151 159 163 169 173 173 196 185 181 195 237 271 293 305 314 63 87 106 138 146 131 117 79 35 15 5 359 356 356 358 353 349
125 118 122 130 137 145 150 151 147 150 153 154 151 160 161 165 180 174 155 161 186 238 278 294 308 94 123 107 94 99 147 141 138 120 62 24 11 2 356 355 355 351 347 348